• In Italy
  • List of Countries
  • For 7 days
  • Water Temperature
  • Satellite Maps
  • Weather Map
  • Weather Widgets
  • user-avatar
    Login

    Hourly Weather Jewłach

    Today, 19 August, Saturday

    Time Temperature Precipitation Wind Pressure Humidity
    00:00 +30°C° 0 mm 3 mps 760 mmHg 40%
    01:00 +29°C° 0 mm 3 mps 760 mmHg 42%
    02:00 +28°C° 0 mm 3 mps 760 mmHg 43%
    03:00 +28°C° 0 mm 3 mps 760 mmHg 46%
    04:00 +28°C° 0 mm 3 mps 760 mmHg 46%
    05:00 +28°C° 0 mm 2 mps 760 mmHg 46%
    06:00 +28°C° 0 mm 2 mps 761 mmHg 47%
    07:00 +30°C° 0 mm 2 mps 761 mmHg 40%
    08:00 +32°C° 0 mm 2 mps 761 mmHg 34%
    09:00 +35°C° 0 mm 2 mps 761 mmHg 28%
    10:00 +36°C° 0 mm 3 mps 760 mmHg 26%
    11:00 +37°C° 0 mm 3 mps 760 mmHg 23%
    12:00 +38°C° 0 mm 4 mps 760 mmHg 21%
    13:00 +40°C° 0 mm 4 mps 760 mmHg 20%
    14:00 +41°C° 0 mm 5 mps 759 mmHg 19%
    15:00 +41°C° 0 mm 5 mps 759 mmHg 19%
    16:00 +40°C° 0 mm 6 mps 759 mmHg 19%
    17:00 +39°C° 0 mm 6 mps 759 mmHg 20%
    18:00 +39°C° 0 mm 6 mps 759 mmHg 21%
    19:00 +36°C° 0 mm 6 mps 760 mmHg 22%
    20:00 +34°C° 0 mm 5 mps 760 mmHg 24%
    21:00 +32°C° 0 mm 5 mps 761 mmHg 25%
    22:00 +30°C° 0 mm 4 mps 761 mmHg 27%
    23:00 +29°C° 0 mm 3 mps 761 mmHg 29%

    Tomorrow, 20 August, Sunday

    Time Temperature Precipitation Wind Pressure Humidity
    00:00 +28°C° 0 mm 2 mps 761 mmHg 31%
    01:00 +28°C° 0 mm 2 mps 761 mmHg 31%
    02:00 +27°C° 0 mm 2 mps 761 mmHg 31%
    03:00 +27°C° 0 mm 2 mps 761 mmHg 31%
    04:00 +27°C° 0 mm 2 mps 761 mmHg 31%
    05:00 +27°C° 0 mm 1 mps 761 mmHg 30%
    06:00 +27°C° 0 mm 1 mps 761 mmHg 30%
    07:00 +29°C° 0 mm 1 mps 761 mmHg 26%
    08:00 +32°C° 0 mm 1 mps 761 mmHg 23%
    09:00 +34°C° 0 mm 1 mps 761 mmHg 20%
    10:00 +36°C° 0 mm 2 mps 760 mmHg 18%
    11:00 +38°C° 0 mm 3 mps 760 mmHg 16%
    12:00 +40°C° 0 mm 4 mps 759 mmHg 14%
    13:00 +41°C° 0 mm 5 mps 759 mmHg 14%
    14:00 +41°C° 0 mm 5 mps 759 mmHg 14%
    15:00 +42°C° 0 mm 6 mps 758 mmHg 14%
    16:00 +41°C° 0 mm 6 mps 758 mmHg 16%
    17:00 +40°C° 0 mm 6 mps 758 mmHg 18%
    18:00 +39°C° 0 mm 6 mps 758 mmHg 20%
    19:00 +36°C° 0 mm 6 mps 759 mmHg 23%
    20:00 +34°C° 0 mm 5 mps 759 mmHg 26%
    21:00 +32°C° 0 mm 4 mps 760 mmHg 29%
    22:00 +30°C° 0 mm 4 mps 760 mmHg 31%
    23:00 +29°C° 0 mm 3 mps 760 mmHg 33%

    Day after tomorrow, 21 August, Monday

    Time Temperature Precipitation Wind Pressure Humidity
    00:00 +28°C° 0 mm 2 mps 760 mmHg 34%
    01:00 +28°C° 0 mm 2 mps 760 mmHg 34%
    02:00 +27°C° 0 mm 2 mps 759 mmHg 34%
    03:00 +27°C° 0 mm 1 mps 759 mmHg 33%
    04:00 +27°C° 0 mm 1 mps 759 mmHg 33%
    05:00 +27°C° 0 mm 2 mps 759 mmHg 32%
    06:00 +27°C° 0 mm 2 mps 759 mmHg 31%
    07:00 +29°C° 0 mm 2 mps 759 mmHg 28%
    08:00 +32°C° 0 mm 2 mps 759 mmHg 24%
    09:00 +35°C° 0 mm 2 mps 758 mmHg 20%
    10:00 +36°C° 0 mm 2 mps 758 mmHg 19%
    11:00 +37°C° 0 mm 2 mps 758 mmHg 17%
    12:00 +38°C° 0 mm 2 mps 757 mmHg 16%
    13:00 +39°C° 0 mm 3 mps 757 mmHg 15%
    14:00 +40°C° 0 mm 3 mps 756 mmHg 15%
    15:00 +42°C° 0 mm 3 mps 756 mmHg 14%
    16:00 +40°C° 0 mm 3 mps 756 mmHg 16%
    17:00 +39°C° 0 mm 3 mps 756 mmHg 17%
    18:00 +38°C° 0 mm 3 mps 756 mmHg 19%
    19:00 +36°C° 0 mm 3 mps 757 mmHg 21%
    20:00 +34°C° 0 mm 3 mps 757 mmHg 23%
    21:00 +33°C° 0 mm 4 mps 758 mmHg 25%
    22:00 +31°C° 0 mm 3 mps 758 mmHg 27%
    23:00 +30°C° 0 mm 3 mps 758 mmHg 28%

    22 August, Tuesday

    Time Temperature Precipitation Wind Pressure Humidity
    00:00 +29°C° 0 mm 2 mps 757 mmHg 30%
    01:00 +28°C° 0 mm 2 mps 757 mmHg 31%
    02:00 +28°C° 0 mm 1 mps 757 mmHg 32%
    03:00 +27°C° 0 mm 1 mps 757 mmHg 33%
    04:00 +27°C° 0 mm 1 mps 757 mmHg 33%
    05:00 +27°C° 0 mm 1 mps 757 mmHg 33%
    06:00 +28°C° 0 mm 1 mps 758 mmHg 32%
    07:00 +30°C° 0 mm 1 mps 757 mmHg 28%
    08:00 +32°C° 0 mm 1 mps 757 mmHg 23%
    09:00 +34°C° 0 mm 1 mps 757 mmHg 19%
    10:00 +37°C° 0 mm 2 mps 757 mmHg 17%
    11:00 +38°C° 0 mm 3 mps 756 mmHg 16%
    12:00 +41°C° 0 mm 4 mps 756 mmHg 15%
    13:00 +41°C° 0 mm 4 mps 755 mmHg 15%
    14:00 +42°C° 0 mm 4 mps 755 mmHg 15%
    15:00 +43°C° 0 mm 5 mps 754 mmHg 14%
    16:00 +42°C° 0 mm 5 mps 755 mmHg 16%
    17:00 +41°C° 0 mm 5 mps 755 mmHg 17%
    18:00 +40°C° 0 mm 5 mps 755 mmHg 19%
    19:00 +37°C° 0 mm 4 mps 755 mmHg 21%
    20:00 +34°C° 0 mm 4 mps 756 mmHg 23%
    21:00 +32°C° 0 mm 4 mps 757 mmHg 25%
    22:00 +30°C° 0 mm 3 mps 757 mmHg 27%
    23:00 +29°C° 0 mm 3 mps 757 mmHg 30%

    23 August, Wednesday

    Time Temperature Precipitation Wind Pressure Humidity
    00:00 +28°C° 0 mm 2 mps 757 mmHg 32%
    01:00 +28°C° 0 mm 2 mps 757 mmHg 33%
    02:00 +27°C° 0 mm 1 mps 757 mmHg 34%
    03:00 +27°C° 0 mm 1 mps 757 mmHg 35%
    04:00 +27°C° 0 mm 1 mps 757 mmHg 35%
    05:00 +27°C° 0 mm 1 mps 758 mmHg 35%
    06:00 +27°C° 0 mm 1 mps 758 mmHg 35%
    07:00 +30°C° 0 mm 1 mps 758 mmHg 29%
    08:00 +32°C° 0 mm 2 mps 758 mmHg 24%
    09:00 +35°C° 0 mm 2 mps 758 mmHg 19%
    10:00 +37°C° 0 mm 3 mps 758 mmHg 17%
    11:00 +38°C° 0 mm 4 mps 757 mmHg 15%
    12:00 +41°C° 0 mm 5 mps 757 mmHg 14%
    13:00 +41°C° 0 mm 5 mps 757 mmHg 14%
    14:00 +42°C° 0 mm 5 mps 757 mmHg 14%
    15:00 +42°C° 0 mm 6 mps 756 mmHg 15%
    16:00 +41°C° 0 mm 6 mps 757 mmHg 16%
    17:00 +40°C° 0 mm 6 mps 757 mmHg 17%
    18:00 +39°C° 0 mm 6 mps 757 mmHg 19%
    19:00 +35°C° 0 mm 5 mps 758 mmHg 21%
    20:00 +33°C° 0 mm 4 mps 759 mmHg 23%
    21:00 +30°C° 0 mm 3 mps 760 mmHg 26%
    22:00 +30°C° 0 mm 2 mps 760 mmHg 27%
    23:00 +29°C° 0 mm 2 mps 760 mmHg 28%

    24 August, Thursday

    Time Temperature Precipitation Wind Pressure Humidity
    00:00 +28°C° 0 mm 1 mps 760 mmHg 29%
    01:00 +28°C° 0 mm 1 mps 761 mmHg 30%
    02:00 +27°C° 0 mm 1 mps 761 mmHg 30%
    03:00 +27°C° 0 mm 1 mps 761 mmHg 31%
    04:00 +27°C° 0 mm 1 mps 761 mmHg 31%
    05:00 +27°C° 0 mm 1 mps 762 mmHg 31%
    06:00 +27°C° 0 mm 1 mps 762 mmHg 31%
    07:00 +30°C° 0 mm 1 mps 762 mmHg 27%
    08:00 +32°C° 0 mm 1 mps 762 mmHg 23%
    09:00 +35°C° 0 mm 2 mps 762 mmHg 19%
    10:00 +37°C° 0 mm 3 mps 762 mmHg 17%
    11:00 +39°C° 0 mm 5 mps 762 mmHg 14%
    12:00 +41°C° 0 mm 6 mps 761 mmHg 12%
    13:00 +41°C° 0 mm 7 mps 761 mmHg 12%
    14:00 +43°C° 0 mm 7 mps 761 mmHg 13%
    15:00 +43°C° 0 mm 8 mps 760 mmHg 13%
    16:00 +40°C° 0 mm 7 mps 761 mmHg 15%
    17:00 +39°C° 0 mm 7 mps 761 mmHg 17%
    18:00 +38°C° 0 mm 7 mps 761 mmHg 19%
    19:00 +35°C° 0 mm 6 mps 761 mmHg 22%
    20:00 +33°C° 0 mm 5 mps 762 mmHg 25%
    21:00 +30°C° 0 mm 4 mps 762 mmHg 28%
    22:00 +29°C° 0 mm 3 mps 762 mmHg 30%
    23:00 +28°C° 0 mm 2 mps 762 mmHg 31%
    Show more